[[{"header":{"parameterUnit":"m.s-1","parameterCategory":1,"la1":30.2991,"la2":30.254,"lo1":-89.0895,"lo2":-89.0444,"dy":0.0017,"dx":0.0017,"nx":28,"ny":28,"refTime":"2023-11-15T09:00:00:Z","depth":0,"parameterNumber":2,"parameterNumberName":"U-component_of_WINDS"},"data":[0,0,0,0,0,0,0,0,0,0,0,0,0,0,0,0,0,0,0,0,0,0,0,0,0,0,0,0,0,0,0,0,0,0,0,0,0,0,0,0,0,0,0,0,0,0,0,0,0,0,0,0,0,0,0,0,0,0,-5.0806,-5.0809,0,-5.1104,-5.1108,-5.1111,-5.1117,-5.1113,-5.1109,-5.1106,-5.1414,-5.1425,-5.1437,0,0,0,0,0,0,0,0,0,0,0,0,0,-5.0243,-5.0253,-5.0805,-5.0809,-5.0813,-5.1104,-5.1108,-5.1112,-5.1117,-5.1113,-5.1108,-5.1104,-5.141,-5.1424,-5.1438,0,0,0,0,0,0,0,0,0,0,0,0,0,-5.0509,-5.0257,-5.0805,-5.085,-5.0858,-5.1103,-5.1108,-5.1113,-5.1118,-5.1113,-5.1107,-5.1102,-5.1405,-5.1422,-5.144,-5.166,0,0,-5.1493,-5.1501,0,0,0,0,0,0,0,0,-5.0494,-5.053,-5.084,-5.0848,-5.0856,-5.1067,-5.1023,-5.1296,-5.112,-5.1019,-5.1105,-5.1099,-5.1303,-5.1329,-5.1397,-5.1674,-5.1687,-5.1495,-5.1505,-5.1513,-5.1518,0,0,0,0,0,0,0,-5.0476,-5.0517,-5.0924,-5.0844,-5.0854,-5.0857,-5.0889,-5.1074,-5.1189,-5.1028,-5.1029,-5.1064,-5.1306,-5.138,-5.1404,-5.1692,-5.1494,-5.151,-5.1521,-5.1527,-5.2169,-5.2176,0,0,0,0,0,0,-5.0448,-5.0501,-5.0914,-5.0933,-5.0657,-5.0872,-5.0907,-5.1005,-5.1187,-5.1209,-5.1068,-5.1063,-5.1353,-5.1384,-5.1415,-5.1688,-5.1513,-5.1529,-5.1539,-5.2163,-5.2171,-5.2178,0,0,0,0,0,0,-5.0435,-5.0484,-5.0902,-5.0718,-5.0771,-5.0888,-5.0998,-5.1014,-5.1088,-5.1218,-5.1238,-5.1123,-5.135,-5.1391,-5.16,-5.1699,-5.1537,-5.1553,-5.2155,-5.2165,-5.2174,-5.2234,0,0,0,0,0,0,-5.0419,-5.048,-5.0564,-5.0719,-5.0781,-5.1081,-5.1004,-5.1024,-5.1118,-5.1114,-5.1274,-5.1295,-5.1349,-5.1574,-5.1617,-5.172,-5.1567,-5.2147,-5.216,-5.2171,-5.2224,-5.2245,-5.2263,0,0,0,0,0,-5.0399,-5.0568,-5.0568,-5.0618,-5.0888,-5.1086,-5.1121,-5.1179,-5.1126,-5.1212,-5.1296,-5.129,-5.1681,-5.1595,-5.1644,-5.1754,-5.2141,-5.2156,-5.217,-5.2215,-5.2241,-5.2262,0,0,0,0,0,0,-5.0421,-5.0589,-5.0591,-5.0815,-5.0936,-5.1087,-5.1197,-5.1203,-5.1343,-5.1333,-5.1399,-5.1435,-5.1644,-5.172,-5.1621,-5.1979,-5.1905,-5.193,-5.1922,-5.1947,-5.1966,-5.1945,-5.1581,0,0,0,0,0,-5.0452,-5.0598,-5.0737,-5.0922,-5.0983,-5.1079,-5.1168,-5.1202,-5.133,-5.1382,-5.1481,-5.1607,-5.1758,-5.1856,-5.2003,-5.2234,-5.2271,-5.2334,-5.2354,-5.2369,-5.2391,-5.2523,-5.2554,-5.2226,-5.2226,-5.2226,0,0,-5.0517,-5.0627,-5.0715,-5.0929,-5.1027,-5.1179,-5.1123,-5.1284,-5.1398,-5.1407,-5.1611,-5.1688,-5.1833,-5.2056,-5.2159,-5.2125,-5.2489,-5.2388,-5.2399,-5.2413,-5.2541,-5.2572,-5.26,-5.2236,-5.2235,-5.2233,0,0,-5.0714,-5.0811,-5.0977,-5.1077,-5.1226,-5.129,-5.133,-5.148,-5.1532,-5.1738,-5.1749,-5.1885,-5.2144,-5.2248,-5.2335,-5.2574,-5.2576,-5.262,-5.2722,-5.285,-5.2876,-5.2899,-5.2988,-5.3019,-5.2641,-5.2641,-5.2641,0,-5.0777,-5.1005,-5.1061,-5.1225,-5.132,-5.1335,-5.1505,-5.1599,-5.1789,-5.1855,-5.1814,-5.2141,-5.224,-5.2489,-5.2547,-5.2616,-5.2666,-5.2603,-5.2868,-5.2892,-5.2914,-5.3,-5.3033,-5.2646,-5.2645,-5.2645,-5.2644,0,-5.1077,-5.1235,-5.1351,-5.1535,-5.1643,-5.1808,-5.1892,-5.1995,-5.202,-5.2088,-5.23,-5.2419,-5.2591,-5.2652,-5.2677,-5.2906,-5.2881,-5.2853,-5.2781,-5.2949,-5.3031,-5.3064,-5.2652,-5.2651,-5.2649,-5.2648,0,0,-5.1296,-5.151,-5.1552,-5.1637,-5.1804,-5.1928,-5.2096,-5.2264,-5.2353,-5.2483,-5.2628,-5.2847,-5.2824,-5.2922,-5.296,-5.3072,-5.3259,-5.3031,-5.3036,-5.3072,-5.3523,-5.3544,-5.3581,-5.326,-5.3266,-5.3271,-5.3512,0,-5.1513,-5.1811,-5.1868,-5.2128,-5.2277,-5.2294,-5.2441,-5.256,-5.2629,-5.2767,-5.2843,-5.2999,-5.2954,-5.3015,-5.3126,-5.3212,-5.3351,-5.3195,-5.3398,-5.3404,-5.3363,-5.3623,-5.3647,-5.3867,-5.3543,-5.3549,-5.3553,0,-5.1807,-5.1946,-5.2221,-5.2371,-5.2436,-5.2566,-5.2727,-5.2858,-5.2994,-5.3037,-5.3148,-5.3174,-5.3352,-5.3269,-5.3517,-5.341,-5.3496,-5.3551,-5.3561,-5.3584,-5.349,-5.3657,-5.3939,-5.3973,-5.3603,-5.3599,-5.3595,0,-5.1944,-5.2199,-5.2398,-5.247,-5.2649,-5.2741,-5.282,-5.2951,-5.305,-5.3191,-5.3256,-5.3415,-5.3504,-5.3627,-5.3697,-5.363,-5.394,-5.3863,-5.3983,-5.3982,-5.405,-5.4045,-5.4353,-5.41,-5.41,-5.4099,-5.4098,0,-5.2182,-5.2351,-5.2462,-5.2584,-5.2775,-5.2839,-5.3026,-5.3104,-5.3221,-5.3361,-5.3385,-5.3515,-5.3597,-5.3741,-5.3796,-5.3994,-5.4033,-5.4075,-5.4088,-5.4074,-5.407,-5.4133,-5.4121,-5.4108,-5.4106,-5.4104,-5.4103,0,-5.2367,-5.2448,-5.2667,-5.2819,-5.2861,-5.2995,-5.3127,-5.3247,-5.3316,-5.3493,-5.3538,-5.3648,-5.3818,-5.3899,-5.4109,-5.4147,-5.4374,-5.4375,-5.4327,-5.4333,-5.4451,-5.444,-5.4813,-5.4866,-5.4575,-5.4578,-5.458,0,-5.2515,-5.2646,-5.2813,-5.2908,-5.299,-5.3142,-5.3243,-5.3313,-5.3418,-5.3585,-5.3687,-5.3857,-5.3998,-5.427,-5.4369,-5.4532,-5.4539,-5.4659,-5.4564,-5.4547,-5.4545,-5.4538,-5.4553,-5.4676,-5.4679,-5.4682,-5.4683,0,-5.2771,-5.2806,-5.295,-5.3111,-5.3231,-5.3361,-5.3488,-5.3565,-5.3655,-5.3772,-5.3946,-5.4056,-5.4272,-5.4443,-5.4612,-5.4695,-5.4707,-5.4712,-5.475,-5.4739,-5.4707,-5.4729,-5.4377,-5.4704,-5.4702,-5.47,-5.4699,-5.4698,-5.2945,-5.3063,-5.32,-5.3362,-5.3465,-5.3584,-5.3706,-5.3791,-5.3938,-5.4119,-5.4151,-5.4337,-5.4474,-5.4703,-5.4793,-5.4941,-5.4914,-5.4966,-5.4981,-5.4993,-5.5002,-5.4681,-5.4972,-5.4971,-5.4971,-5.497,-5.497,0,-5.3205,-5.3294,-5.3442,-5.362,-5.3748,-5.3746,-5.3888,-5.3995,-5.4159,-5.4285,-5.4424,-5.4626,-5.4793,-5.4906,-5.5076,-5.5173,-5.5182,-5.5215,-5.521,-5.523,-5.5014,-5.4967,-5.5205,-5.5205,-5.5205,-5.5205,-5.5205,-5.5205,-5.3355,-5.3556,-5.3607,-5.386,-5.3949,-5.4131,-5.4213,-5.4324,-5.4426,-5.465,-5.4789,-5.4861,-5.4984,-5.5163,-5.5317,-5.5346,-5.5409,-5.5444,-5.5473,-5.5269,-5.5245,-5.5221,-5.5177,-5.5456,-5.5456,-5.5677,-5.5679,-5.568]},{"header":{"parameterUnit":"m.s-1","parameterCategory":1,"la1":30.2991,"la2":30.254,"lo1":-89.0895,"lo2":-89.0444,"dy":0.0017,"dx":0.0017,"nx":28,"ny":28,"refTime":"2023-11-15T09:00:00:Z","depth":0,"parameterNumber":3,"parameterNumberName":"V-component_of_WINDS"},"data":[0,0,0,0,0,0,0,0,0,0,0,0,0,0,0,0,0,0,0,0,0,0,0,0,0,0,0,0,0,0,0,0,0,0,0,0,0,0,0,0,0,0,0,0,0,0,0,0,0,0,0,0,0,0,0,0,0,0,-4.8062,-4.8062,0,-4.804,-4.8039,-4.8039,-4.7955,-4.7953,-4.7951,-4.7949,-4.7926,-4.7928,-4.7929,0,0,0,0,0,0,0,0,0,0,0,0,0,-4.8032,-4.8033,-4.8062,-4.8062,-4.8062,-4.804,-4.8039,-4.8039,-4.7955,-4.7953,-4.795,-4.7948,-4.7926,-4.7927,-4.7929,0,0,0,0,0,0,0,0,0,0,0,0,0,-4.8031,-4.8033,-4.8062,-4.8017,-4.8013,-4.804,-4.8039,-4.8039,-4.7955,-4.7953,-4.795,-4.7947,-4.7926,-4.7927,-4.7929,-4.7998,0,0,-4.7934,-4.7935,0,0,0,0,0,0,0,0,-4.8031,-4.8032,-4.8024,-4.802,-4.8016,-4.7997,-4.802,-4.8025,-4.7956,-4.7977,-4.7949,-4.7946,-4.7952,-4.7952,-4.7954,-4.7997,-4.7996,-4.7935,-4.7936,-4.7937,-4.7937,0,0,0,0,0,0,0,-4.8031,-4.8033,-4.8053,-4.8024,-4.8019,-4.7998,-4.7994,-4.8021,-4.7981,-4.7975,-4.7969,-4.7967,-4.7949,-4.7952,-4.7953,-4.7996,-4.7935,-4.7936,-4.7937,-4.7938,-4.8092,-4.8095,0,0,0,0,0,0,-4.8038,-4.8033,-4.8054,-4.8053,-4.8016,-4.8001,-4.7997,-4.8006,-4.7981,-4.7974,-4.797,-4.7964,-4.7951,-4.7951,-4.7952,-4.8029,-4.7936,-4.7938,-4.7939,-4.8089,-4.8093,-4.8096,0,0,0,0,0,0,-4.8038,-4.8041,-4.8055,-4.8041,-4.8041,-4.8004,-4.8015,-4.8007,-4.801,-4.7977,-4.7969,-4.798,-4.7948,-4.7949,-4.7986,-4.8027,-4.7939,-4.7941,-4.8086,-4.809,-4.8094,-4.8187,0,0,0,0,0,0,-4.8037,-4.8041,-4.8067,-4.8043,-4.8043,-4.8091,-4.8018,-4.8009,-4.8013,-4.8004,-4.7984,-4.7978,-4.7946,-4.7984,-4.7988,-4.8028,-4.7942,-4.8082,-4.8088,-4.8093,-4.818,-4.8194,-4.8206,0,0,0,0,0,-4.8036,-4.8095,-4.8069,-4.8072,-4.8075,-4.8094,-4.8094,-4.8055,-4.8017,-4.8042,-4.8021,-4.7979,-4.8022,-4.7989,-4.7993,-4.8034,-4.8079,-4.8086,-4.8093,-4.8174,-4.8191,-4.8206,0,0,0,0,0,0,-4.8126,-4.8091,-4.8062,-4.8114,-4.8107,-4.8079,-4.8111,-4.8075,-4.8079,-4.8071,-4.8023,-4.8019,-4.8064,-4.8052,-4.8016,-4.8098,-4.8043,-4.8051,-4.8104,-4.812,-4.8133,-4.8135,-4.7944,0,0,0,0,0,-4.8152,-4.817,-4.8138,-4.8187,-4.8185,-4.8149,-4.8156,-4.8126,-4.8118,-4.8115,-4.8096,-4.8089,-4.8101,-4.811,-4.8119,-4.8178,-4.8171,-4.8208,-4.8221,-4.8231,-4.8239,-4.8268,-4.8283,-4.8118,-4.8118,-4.8118,0,0,-4.8206,-4.8188,-4.8203,-4.8205,-4.8196,-4.8216,-4.8147,-4.8171,-4.8185,-4.8118,-4.8152,-4.8138,-4.8127,-4.8176,-4.8196,-4.8168,-4.8283,-4.824,-4.8249,-4.8251,-4.8276,-4.8292,-4.8306,-4.8123,-4.8122,-4.8121,0,0,-4.8313,-4.8303,-4.8342,-4.8334,-4.8321,-4.8296,-4.8306,-4.8283,-4.827,-4.8304,-4.8253,-4.8269,-4.8291,-4.8285,-4.8284,-4.8388,-4.8349,-4.8392,-4.846,-4.8489,-4.8502,-4.8513,-4.8549,-4.8563,-4.8399,-4.84,-4.84,0,-4.8382,-4.841,-4.8366,-4.8393,-4.8395,-4.8334,-4.8373,-4.8367,-4.8359,-4.8361,-4.833,-4.8354,-4.8343,-4.8388,-4.8413,-4.8415,-4.8424,-4.8394,-4.8503,-4.8514,-4.8524,-4.8558,-4.8572,-4.8405,-4.8404,-4.8404,-4.8403,0,-4.8494,-4.8514,-4.8547,-4.8539,-4.8544,-4.8577,-4.8538,-4.8549,-4.8519,-4.8497,-4.8531,-4.8514,-4.8518,-4.8527,-4.8498,-4.8568,-4.855,-4.8512,-4.8456,-4.8546,-4.8577,-4.8589,-4.8412,-4.841,-4.8409,-4.8408,0,0,-4.8659,-4.8625,-4.8638,-4.8633,-4.8614,-4.8628,-4.8658,-4.8661,-4.8671,-4.8666,-4.8689,-4.8708,-4.8672,-4.8671,-4.8641,-4.8666,-4.8748,-4.8624,-4.8623,-4.8647,-4.8822,-4.8852,-4.8867,-4.8722,-4.8724,-4.8726,-4.8823,0,-4.8762,-4.881,-4.8771,-4.8826,-4.8843,-4.8784,-4.881,-4.88,-4.878,-4.8792,-4.8769,-4.8783,-4.8734,-4.8733,-4.8756,-4.8733,-4.8782,-4.8726,-4.8742,-4.8744,-4.8747,-4.8884,-4.8915,-4.9008,-4.8835,-4.8837,-4.8838,0,-4.8888,-4.8888,-4.8945,-4.892,-4.8925,-4.8949,-4.8948,-4.896,-4.8947,-4.8931,-4.893,-4.8892,-4.8918,-4.8863,-4.8898,-4.886,-4.8865,-4.8855,-4.8857,-4.8857,-4.8797,-4.8887,-4.9036,-4.905,-4.8857,-4.8856,-4.8854,0,-4.9002,-4.9016,-4.9052,-4.9049,-4.9021,-4.9039,-4.9028,-4.9013,-4.9017,-4.9016,-4.9017,-4.902,-4.9021,-4.9024,-4.8987,-4.8951,-4.9027,-4.8969,-4.9014,-4.9015,-4.9033,-4.9033,-4.9185,-4.9036,-4.9036,-4.9036,-4.9035,0,-4.912,-4.9157,-4.9102,-4.9124,-4.9163,-4.9117,-4.9158,-4.9141,-4.9127,-4.9144,-4.9093,-4.9111,-4.9061,-4.9073,-4.9045,-4.9078,-4.9079,-4.9066,-4.9058,-4.9071,-4.9072,-4.9073,-4.9066,-4.9039,-4.9039,-4.9038,-4.9037,0,-4.9255,-4.922,-4.9254,-4.9224,-4.9217,-4.9248,-4.9222,-4.924,-4.9216,-4.9238,-4.9241,-4.9203,-4.9214,-4.9177,-4.9183,-4.9164,-4.9212,-4.9194,-4.9216,-4.9211,-4.9257,-4.9253,-4.9415,-4.9434,-4.9274,-4.9276,-4.9277,0,-4.9333,-4.936,-4.9332,-4.934,-4.9331,-4.9344,-4.9347,-4.9302,-4.9308,-4.9295,-4.9315,-4.9321,-4.9324,-4.9345,-4.9318,-4.9321,-4.9302,-4.9359,-4.9303,-4.9314,-4.9303,-4.9301,-4.9303,-4.9371,-4.9373,-4.9374,-4.9375,0,-4.9475,-4.9456,-4.9462,-4.9462,-4.9467,-4.9465,-4.946,-4.9469,-4.942,-4.9429,-4.9439,-4.9441,-4.9446,-4.9453,-4.945,-4.9438,-4.9399,-4.9393,-4.9404,-4.9417,-4.9429,-4.9422,-4.9248,-4.939,-4.9388,-4.9387,-4.9387,-4.9386,-4.9584,-4.9604,-4.9587,-4.9595,-4.9586,-4.9582,-4.9597,-4.9574,-4.9582,-4.9581,-4.9554,-4.957,-4.9555,-4.9547,-4.9539,-4.955,-4.9524,-4.954,-4.9543,-4.9548,-4.9556,-4.9427,-4.955,-4.9549,-4.9549,-4.9548,-4.9548,0,-4.9722,-4.9708,-4.9716,-4.9709,-4.9715,-4.9676,-4.9668,-4.9676,-4.969,-4.9679,-4.9682,-4.9693,-4.9699,-4.9672,-4.9674,-4.9688,-4.967,-4.969,-4.9689,-4.9687,-4.9579,-4.957,-4.9705,-4.9705,-4.9705,-4.9705,-4.9705,-4.9705,-4.9796,-4.9828,-4.9806,-4.9832,-4.9817,-4.9832,-4.983,-4.9825,-4.9816,-4.983,-4.9835,-4.9816,-4.9799,-4.9799,-4.9802,-4.9794,-4.9797,-4.9824,-4.9809,-4.971,-4.9694,-4.968,-4.9671,-4.9825,-4.9825,-4.9915,-4.9916,-4.9917]}]]